Regional Weather Roundup
Issued by NWS Sterling, VA

Home | Current Version | Previous Version | Graphics & Text | Print | Product List | Glossary On
Versions: 1 2 3 4 5 6 7 8 9 10 11 12 13 14 15 16 17 18 19 20 21 22 23 24 25 26 27 28 29 30 31 32 33 34 35 36 37 38 39 40 41 42 43 44 45 46 47 48 49 50
000
ASUS41 KLWX 211410
RWRLWX

REGIONAL WEATHER ROUNDUP
NATIONAL WEATHER SERVICE BALTIMORE MD/WASHINGTON DC
1000 AM EDT THU AUG 21 2014

Note: "FAIR" indicates few or no clouds below 12,000 feet
with no significant weather and/or obstructions to visibility.
 TC=TEMPERATURE CELSIUS

 * =Non NWS site. Station does not report precipitation (e.g. rain,
    snow, etc.), thunder, or fog.

DCZ001-MDZ009-015-VAZ040>042-051-053>054-211500-
WASHINGTON METRO
  /KDAA//-FT BELVOIR

CITY           SKY/WX    TMP DP  RH WIND       PRES   REMARKS
WASHINGTON NAT MOSUNNY   77  68  73 S3        30.05F
DULLES         PTSUNNY   70  68  94 SW5       30.07R FOG
ANDREWS AFB    SUNNY     79  71  76 W5        30.05F
QUANTICO       PTSUNNY   73  69  87 CALM      30.06S
COLLEGE PARK*  MOSUNNY   73  72  94 CALM      30.05R
LEESBURG*      PTSUNNY   72  72 100 W5        30.08R
MANASSAS*      CLOUDY    70  70 100 CALM      30.07  FOG
GAITHERSBURG*  SUNNY     73  68  83 W3        30.10S

$$

MDZ006>007-011-014-211500-
BALTIMORE METRO

CITY           SKY/WX    TMP DP  RH WIND       PRES   REMARKS
BWI AIRPORT    MOSUNNY   75  70  84 SW3       30.04F
MD SCIENCE CTR   N/A     78  71  79 MISG      30.04F
MARTIN STATE   PTSUNNY   77  73  88 CALM      30.05F
ANNAPOLIS        N/A     77  69  76 CALM      30.04F
FORT MEADE*    PTSUNNY   72  72 100 CALM      30.07S

$$

MDZ012-015-019>023-211500-
MARYLAND EASTERN SHORE

CITY           SKY/WX    TMP DP  RH WIND       PRES   REMARKS
OCEAN CITY     PTSUNNY   77  71  82 E6        30.06S
SALISBURY      MOSUNNY   81  72  74 CALM      30.05S
BAY BRIDGE AP*   N/A     77  70  78 CALM      30.04F
CAMBRIDGE*     MOSUNNY   81  72  74 W5        30.04F
EASTON*        PTSUNNY   81  73  78 CALM      30.08F

$$

MDZ017>025-211500-
SOUTHERN MARYLAND

CITY           SKY/WX    TMP DP  RH WIND       PRES   REMARKS
PATUXENT RIVER MOSUNNY   79  71  76 W3        30.04S
ST INIGOES     MOSUNNY   81  70  69 NW5       30.04S
LEONARDTOWN*   PTSUNNY   79  68  69 W3        30.06S

$$

MDZ003>005-211500-
NORTH CENTRAL MARYLAND

CITY           SKY/WX    TMP DP  RH WIND       PRES   REMARKS
FREDERICK*     SUNNY     77  72  83 W3        30.08F
HAGERSTOWN APT CLOUDY    71  68  90 CALM      30.07R
WESTMINSTER*   SUNNY     73  72  94 SW5       30.06S

$$

MDZ501>502-211500-
WESTERN MARYLAND

CITY           SKY/WX    TMP DP  RH WIND       PRES   REMARKS
OAKLAND*       PTSUNNY   66 N/A N/A SW7       30.18R HAZE
CUMBERLAND*    SUNNY     79  70  73 SW3       30.11S

$$

VAZ025>031-211500-
SHENANDOAH VALLEY

CITY           SKY/WX    TMP DP  RH WIND       PRES   REMARKS
WINCHESTER*    SUNNY     73  72  94 SW3       30.07S
STAUNTON*      SUNNY     72  70  95 SE3       30.13S

$$

WVZ021-048>050-054>055-211500-
EASTERN WEST VIRGINIA PANHANDLE

CITY           SKY/WX    TMP DP  RH WIND       PRES   REMARKS
MARTINSBURG    CLOUDY    71  66  84 VRB3      30.08R HAZE
PETERSBURG*    NOT AVBL

$$

VAZ036>039-050-211500-
CENTRAL FOOTHILLS

CITY           SKY/WX    TMP DP  RH WIND       PRES   REMARKS
CHARLOTTESVILL PTSUNNY   71  70  96 CALM      30.08S FOG
ORANGE*        MOSUNNY   73  70  88 S5        30.09S

$$

VAZ055>057-211500-
NORTH AND CENTRAL PIEDMONT

CITY           SKY/WX    TMP DP  RH WIND       PRES   REMARKS
FREDERICKSBRG* SUNNY     76  72  88 W3        30.05S
STAFFORD*      PTSUNNY   72  72 100 CALM      30.09F

$$

NCZ024-NYZ072-PAZ021-071-VAZ022-071-211500-
OTHER REGIONAL OBSERVATIONS

CITY           SKY/WX    TMP DP  RH WIND       PRES   REMARKS
NEW YORK CITY  CLOUDY    75  63  66 CALM      30.09S
PHILADELPHIA   PTSUNNY   78  67  68 S3        30.06S
PITTSBURGH     PTSUNNY   73  67  81 SW9       30.06S
ROANOKE        MOSUNNY   78  64  61 CALM      30.14S
RICHMOND       SUNNY     82  70  66 CALM      30.06S
RALEIGH        MOSUNNY   82  71  69 NE3       30.08S

$$

ANZ530>537-211500-
MARINE OBSERVATIONS

STATION/POSITION TIME  TEMP    WIND        PRES
                       AIR SEA DIR/SP/G
                 (UTC) (F)     (DEG/KT/KT) (MB)
THOMAS PT LIGHT  1400   77 78   CALM  /  1 1017.8F
BALT KEY BRIDGE  1400   74     240/  3/  5 1017.2F
COVE POINT       1400   78     350/  3/  3 1017.2S
LEWISETTA        1400   79 79  300/  3/  5 1017.0S
SOLOMONS ISLAND  1400      80                N/A
PINEY POINT      1400          340/  8/  9   N/A

$$




USA.gov is the U.S. government's official web portal to all federal, state and local government web resources and services.